Voltar ao catálogo

COSMOS 2257

AtivoMilitarPO
NORAD 22692·PAYLOAD·🇷🇺 Russia

Lançado Jun 24, 1993 de Plesetsk Cosmodrome

Loading…

Próximas Passagens (próximas 24 horas)

TLE

AtualizadoSource: Space-Track

Época: Sep 14, 2026, 04:13 UTC

1 22692U 93038F   26257.17624015  .00000028  00000-0  99197-4 0  9991
2 22692  82.5824 181.8552 0008613 143.1493 217.0191 12.62261080531014

Acompanhe COSMOS 2257 em tempo real com AllMySat

Download on the App Store